Location: Liebenburg
(52.0225°N, 10.4314°E)
Time: 03:00:21
(UTC+00:00)

Daily predictions for brighter satellites

Satellite Brightness Start Highest point End
(mag) Time Altitude Azimuth Time Altitude Azimuth Time Altitude Azimuth
ADEOS II 4.4 00:00:02 10° NE 00:02:51 14° E 00:05:39 10° ESE
Cosmos 1626 2.4 00:02:18 32° SW 00:03:43 55° WNW 00:07:22 10° N
Cosmos 220 Rocket 4.0 00:02:16 28° SW 00:04:22 71° WNW 00:08:35 10° NNE
NOSS 2-2 (D) 4.3 00:00:59 10° NW 00:05:48 58° SW 00:11:38 14° SSE
Cosmos 1461 4.0 00:02:24 10° WNW 00:05:54 26° WSW 00:06:31 25° SW
Cosmos 1553 Rocket 4.2 00:03:21 23° SSW 00:07:15 63° WNW 00:13:26 10° N
Gblst 52 Del rocket 4.1 00:01:48 10° WSW 00:07:55 80° S 00:13:31 10° E
Cosmos 1867 3.5 00:05:01 23° SW 00:08:36 87° SE 00:14:07 10° NE
Cosmos 1674 Rocket 3.6 00:06:55 29° SSW 00:09:01 69° WNW 00:13:21 10° N
Cosmos 2221 Rocket 4.1 00:06:47 25° SW 00:09:03 50° WNW 00:13:22 10° N
Cosmos 2298 Rocket 4.1 00:07:41 26° S 00:10:40 71° ESE 00:15:59 10° NNE
Cosmos 1238 Rocket 3.4 00:09:06 10° NNW 00:11:40 26° W 00:12:06 25° WSW
Thor Agena Rocket 4.2 00:07:05 10° NNE 00:12:14 49° E 00:15:34 21° SSE
Cosmos 1674 3.6 00:10:51 25° SW 00:12:30 38° WNW 00:16:03 10° N
USA 306 3.7 00:11:52 29° S 00:12:51 32° SE 00:16:36 10° E
Cosmos 2369 Rocket 4.2 00:08:28 10° NNW 00:13:17 28° NE 00:18:05 10° E
ATLAS CENTAUR R/B 3.6 00:11:03 10° WNW 00:13:30 14° WSW 00:13:59 14° WSW
USA 307 3.8 00:15:20 27° SSE 00:16:19 31° SE 00:20:01 10° E
SL-16 R/B 3.8 00:16:08 12° SSE 00:19:57 23° ESE 00:24:18 10° NE
ATLAS 5 CENTAUR R/B 3.5 00:09:53 10° NW 00:22:07 42° WSW 00:24:40 24° SSW
CZ-4C R/B 3.6 00:16:10 10° NW 00:22:47 38° WSW 00:27:52 20° S
ERBS 3.5 00:22:52 23° SE 00:22:55 23° SE 00:25:25 10° E
Cosmos 1455 Rocket 3.4 00:18:27 10° N 00:22:55 65° ENE 00:26:09 18° SSE
Cosmos 2322 Rocket 4.3 00:19:12 10° W 00:23:32 22° NW 00:27:52 10° NNE
Cosmos 1980 3.8 00:20:38 24° S 00:24:03 66° ESE 00:29:41 10° NE
Cosmos 1378 Rocket 4.0 00:22:19 25° SW 00:24:40 52° WNW 00:29:02 10° N
Cosmos 2333 Rocket 3.3 00:19:42 10° WSW 00:24:57 40° NW 00:30:18 10° NNE
USA 215 3.5 00:18:52 10° ENE 00:25:24 72° NNW 00:31:56 10° W
Cosmos 2322 4.4 00:20:47 14° WSW 00:25:30 49° NW 00:31:06 10° NNE
Cosmos 332 Rocket 4.2 00:28:23 23° S 00:31:10 52° ESE 00:35:50 10° NNE
NOSS 0 Rocket 3.9 00:29:22 21° SSW 00:33:41 88° ESE 00:39:59 10° NNE
Meteor 2-10 Rocket 3.7 00:31:36 10° NNW 00:37:19 74° W 00:41:17 19° S
USA 32 4.1 00:35:15 23° SSW 00:38:36 77° W 00:43:54 10° N
Meteor 1-24 Rocket 4.4 00:34:53 15° SSE 00:39:15 47° E 00:44:27 10° NNE
Cosmos 1975 Rocket 3.3 00:39:39 22° S 00:42:27 69° E 00:46:55 10° NNE
UNK 4.4 00:41:18 10° SE 00:45:46 55° ENE 00:50:18 10° N
USA 308 3.3 00:44:46 25° SSW 00:46:47 45° SSE 00:50:47 10° ENE
Cosmos 2219 Rocket 3.4 00:43:10 10° WSW 00:48:16 35° NW 00:53:25 10° NNE
MOS 1 Rocket 4.0 00:44:44 10° SE 00:48:51 48° ENE 00:53:02 10° N
Cosmos 1455 3.1 00:45:29 10° N 00:49:04 44° ENE 00:52:38 10° SSE
Cosmos 1269 Rocket 4.0 00:44:36 10° NNW 00:49:55 81° WSW 00:55:07 10° SSE
Cosmos 1025 Rocket 3.2 00:47:03 20° S 00:49:55 66° E 00:54:13 10° NNE
Cosmos 1271 Rocket 4.5 00:48:59 10° N 00:52:24 30° ENE 00:55:51 10° SE
GP-B 3.4 00:51:02 10° N 00:55:23 54° W 00:58:07 21° SSW
CZ-2D R/B 2.4 00:52:50 10° NNE 00:58:13 63° ESE 01:02:28 16° S
Cosmos 1300 3.8 00:56:28 10° NNW 00:59:48 30° W 01:01:27 21° SW
Meteor 2-5 Rocket 3.8 00:55:38 17° S 01:00:07 77° E 01:05:47 10° NNE
Lacrosse 5 2.9 00:58:31 18° S 01:01:29 33° SE 01:06:02 10° ENE
SL-14 R/B 4.5 01:02:27 18° WSW 01:04:41 31° WNW 01:08:10 10° N
Cosmos 1544 Rocket 3.5 01:04:51 10° NNW 01:09:18 84° W 01:13:10 13° S
Cosmos 371 Rocket 4.0 01:06:03 16° SW 01:09:42 46° WNW 01:14:24 10° NNE
USA 305 2.8 01:07:08 18° SW 01:10:09 66° SSE 01:14:19 10° ENE
BREEZE-M DEB (TANK) 4.2 00:59:06 10° WSW 01:13:05 64° S 01:17:04 10° E
Cosmos 2237 Rocket 2.5 01:11:28 16° SW 01:16:03 63° NW 01:21:45 10° NNE
AQUA 4.2 01:12:51 10° NNE 01:17:35 60° ESE 01:21:49 13° S
COSMOS 2428 4.1 01:13:01 10° WSW 01:18:04 32° NW 01:23:09 10° NNE
Cosmos 304 Rocket 4.2 01:17:17 16° SW 01:20:57 55° WNW 01:25:44 10° NNE
SL-16 R/B 2.6 01:15:01 10° S 01:21:11 69° WSW 01:27:28 10° NNW
SAR-Lupe-2 4.0 01:17:41 10° NNE 01:21:15 57° ESE 01:24:09 14° S
Helios 1A 3.3 01:17:59 10° SSE 01:22:10 70° ENE 01:26:24 10° N
Lacrosse 5 rocket 2.6 01:21:54 15° S 01:24:16 27° SE 01:27:42 10° ENE
SME Rocket 4.2 01:24:34 17° SW 01:27:06 31° W 01:31:43 10° NNW
Cosmos 2074 Rocket 4.0 01:21:09 10° NNW 01:27:25 71° W 01:33:40 10° S
Resurs 1-4 Rocket 2.1 01:22:09 10° NNE 01:27:26 78° WNW 01:31:56 14° SSW
Cosmos 1943 Rocket 2.4 01:27:01 10° NW 01:32:31 50° WSW 01:37:57 10° S
Cosmos 2297 3.8 01:26:50 10° NW 01:32:32 63° WSW 01:38:11 10° SSE
Cosmos 1703 4.1 01:36:18 10° S 01:40:06 48° E 01:43:54 10° NNE
Cosmos 2184 Rocket 4.2 01:36:07 10° NNW 01:42:16 58° W 01:48:19 10° S
NOSS 7 (E) 4.4 01:39:08 10° NW 01:42:20 88° SW 01:46:19 10° SE
Cosmos 2278 Rocket 4.0 01:40:04 10° WNW 01:42:50 14° W 01:45:23 11° SW
ADEOS II 2.2 01:38:04 10° NNE 01:43:23 82° ESE 01:48:38 10° SSW
CRYOSAT 2 4.4 01:38:49 10° S 01:43:40 67° W 01:48:34 10° N
IDEFIX/ARIANE 42P 2.8 01:38:59 10° NNE 01:44:17 72° ESE 01:49:32 10° S
Cosmos 1610 Rocket 4.5 01:39:57 10° NNW 01:46:08 79° W 01:52:15 10° S
USA 306 2.9 01:47:58 10° WSW 01:52:09 87° NNW 01:56:21 10° ENE
Cosmos 2084 Rocket 3.2 01:49:15 13° SW 01:52:40 78° NW 01:56:30 10° NE
Cosmos 292 Rocket 4.1 01:48:15 10° S 01:52:59 62° ESE 01:57:44 10° NNE
NPP 3.9 01:50:05 10° N 01:55:24 59° WNW 02:00:35 10° SW
USA 307 2.8 01:51:26 10° WSW 01:55:38 90° SE 01:59:51 10° ENE
Cosmos 2369 Rocket 2.1 01:52:17 10° NNW 01:57:53 75° WSW 02:03:27 10° SSE
ERBS 2.3 01:54:59 10° WSW 01:58:01 65° NNW 02:01:05 10° ENE
Gblst 52 Del rocket 4.1 01:53:50 10° W 01:59:37 79° SSW 02:05:07 10° ESE
IRS-1D 4.1 01:55:56 10° NNE 02:01:16 62° ESE 02:06:30 10° S
Cosmos 2228 3.0 01:56:54 10° NNW 02:01:17 76° W 02:05:36 10° S
Cosmos 614 Rocket 4.3 01:56:22 10° NW 02:01:20 47° WSW 02:06:19 10° S
EO 1 Del DPAF 3.0 01:58:08 10° NNE 02:01:40 80° WNW 02:05:10 10° SSW
Cosmos 2251 Rocket 3.5 01:58:10 10° NNW 02:03:26 71° WSW 02:08:40 10° SSE
SL-16 R/B 2.3 01:58:00 11° SW 02:03:30 74° WNW 02:09:13 10° NNE
Cosmos 1656 Rocket 3.6 02:01:51 10° NNW 02:07:18 78° WSW 02:12:43 10° SSE
Meteor 1-28 Rocket 3.9 02:03:57 10° SSW 02:07:24 36° W 02:10:53 10° NNW
USA 215 3.9 02:01:43 10° ENE 02:08:06 58° N 02:14:31 10° WNW
Cosmos 2058 Rocket 4.3 02:04:50 10° N 02:09:05 44° ENE 02:13:15 10° SSE
COSMOS 2455 3.0 02:05:03 10° SSW 02:11:02 72° ESE 02:17:04 10° NE
Cosmos 1536 Rocket 3.9 02:08:13 10° SSW 02:12:33 53° WNW 02:16:52 10° N
COSMOS 2441 4.5 02:11:43 10° NNE 02:16:38 84° ESE 02:21:29 10° SSW
MSX 3.9 02:15:32 10° NNE 02:21:19 80° WNW 02:27:05 10° SSW
Nadezhda 1 Rocket 4.3 02:15:52 10° SSW 02:22:08 59° WNW 02:28:20 10° N
Cosmos 1455 3.9 02:21:44 10° NW 02:24:13 17° W 02:26:41 10° SW
USA 308 3.0 02:22:06 10° W 02:26:18 76° N 02:30:30 10° ENE
Cosmos 1603 4.5 02:21:39 10° S 02:27:04 50° ESE 02:32:33 10° NE
MOS 1 Rocket 4.5 02:24:03 10° SW 02:27:23 22° W 02:30:45 10° NW
Cosmos 1271 Rocket 3.8 02:25:01 10° NW 02:28:15 27° W 02:31:30 10° SSW
